Weather in Ipoh

Malaysia     4°37′41″N   101°05′58″E
temp.,
°C
wind,
m/s
gust,
m/s
humid.,
%
clouds,
%
prec.,
mm/h
press.,
hPa
HPBL,
m
28 october, thu
thu2823:00+23ene0098100 3.1 101121
02:00+23nne119898 3.2 101028
05:00+22nne1299100 1.3 100947
08:00+23nne129760 1.3 101094
11:00+30nne016556 0.1 1011660
14:00+32sse2253100 0.1 10081589
17:00+28ssw2386100 2.4 1007175
20:00+24sse0094100 5.4 101011
29 october, fri
fri2923:00+24ne1197100 0.4 101228
02:00+23nne1298100 1.3 101159
05:00+23nne1198100 0.0 101013
08:00+23nne119696 0.0 101253
11:00+30sse016698 0.0 1012711
14:00+32s1155100 0.4 10091692
17:00+27sw1186100 4.3 100829
20:00+24ssw2496100 14.1 101190
30 october, sat
sat3023:00+23ssw139754 7.1 1013107
02:00+23se009974 9.6 101222
05:00+22n1199100 0.1 101119
08:00+23n1198100 0.3 101350
11:00+28n118038 0.1 1014620
14:00+28sse1180100 3.6 1011740
17:00+23wnw1197100 9.3 101041
20:00+23nne1198100 9.8 101225
31 october, sun
sun3123:00+23n1198100 0.8 101333
02:00+23nne119886 0.8 101140
05:00+21nne119886 0.0 101114
08:00+22nne1195100 0.0 101362
11:00+29s006879 0.5 1013718
14:00+28sw128099 3.2 1011835
17:00+25s1292100 7.3 1009246
20:00+23ssw1196100 11.8 101211
1 november, mon
mon123:00+23n1197100 0.0 101318
02:00+23n1198100 0.0 101123
05:00+22nne119999 0.0 101029
08:00+22n119798 0.0 101282
11:00+29e0070100 0.0 1013808
14:00+29sw2165100 0.8 10091307
17:00+26wsw1188100 3.1 1008225
20:00+24wnw1196100 5.4 101111